Brainerd, MN

6:59 AM CST on December 03, 2016 (GMT -0600)
Brainerd-Crow Wing County Regional

Weather History for KBRD - April, 2013

Change the Weather History Date:

Thursday, April 11, 2013

  Actual Average Record
Temperature  
Mean Temperature 32 °F -  
Max Temperature 35 °F 51 °F 86 °F (1977)
Min Temperature 28 °F 27 °F 10 °F (1957)
Degree Days  
Heating Degree Days 34    
Moisture  
Dew Point 23 °F    
Average Humidity 74    
Maximum Humidity 86    
Minimum Humidity 40    
Precipitation  
Precipitation 0.08 in - - ()
Sea Level Pressure  
Sea Level Pressure 29.85 in    
Wind  
Wind Speed 14 mph (ENE)    
Max Wind Speed 18 mph    
Max Gust Speed 33 mph    
Visibility 4 miles    
Events Fog , Snow    
Averages and records for this station are not official NWS values.
T = Trace of Precipitation, MM = Missing Value Source: NWS Daily Summary

Daily Weather History Graph

Daily Weather History Graph

Search for Another Location

Airport or City:

Trip Planner

Search our weather history database for the weather conditions in past years. The results will help you decide how hot, cold, wet, or windy it might be!

Date:

Astronomy

Apr. 11, 2013 Rise Set
Actual Time 6:36 AM CDT 7:59 PM CDT
Civil Twilight 6:05 AM CDT 8:30 PM CDT
Nautical Twilight 5:27 AM CDT 9:08 PM CDT
Astronomical Twilight 4:47 AM CDT 9:48 PM CDT
Moon 7:03 AM CDT (4/11) 9:41 PM CDT (4/11)
Length of Visible Light 14h 25m
Length of Day
13h 22m
New Moon, 2% of the Moon is Illuminated
Apr 11
New Moon
Apr 18
First Quarter
Apr 25
Full
May 2
Last Quarter
May 9
New

Hourly Weather History & Observations

Time (CDT) Temp. Windchill Dew Point Humidity Pressure Visibility Wind Dir Wind Speed Gust Speed Precip Events Conditions
12:53 AM 35.1 °F 25.9 °F 12.9 °F 40% 30.03 in 10.0 mi ENE 13.8 mph 19.6 mph N/A   Overcast
1:53 AM 34.0 °F 25.0 °F 12.0 °F 40% 30.00 in 10.0 mi ENE 12.7 mph 20.7 mph N/A   Overcast
2:53 AM 33.1 °F 23.0 °F 14.0 °F 46% 29.97 in 10.0 mi ENE 15.0 mph 19.6 mph N/A   Overcast
3:53 AM 33.1 °F 22.6 °F 16.0 °F 50% 29.95 in 10.0 mi ENE 16.1 mph 23.0 mph N/A   Overcast
4:53 AM 33.1 °F 24.4 °F 18.0 °F 54% 29.96 in 10.0 mi ENE 11.5 mph 23.0 mph N/A   Overcast
5:53 AM 32.0 °F 22.1 °F 19.9 °F 61% 29.93 in 10.0 mi ENE 13.8 mph 20.7 mph N/A   Overcast
6:53 AM 32.0 °F 20.5 °F 21.0 °F 64% 29.91 in 10.0 mi ENE 18.4 mph 25.3 mph N/A   Overcast
7:53 AM 32.0 °F 23.0 °F 21.0 °F 64% 29.93 in 10.0 mi East 11.5 mph - N/A   Overcast
8:19 AM 32.0 °F 21.2 °F 21.2 °F 64% 29.88 in 1.5 mi ENE 16.1 mph 24.2 mph 0.00 in Snow Light Snow
8:22 AM 30.2 °F 20.2 °F 21.2 °F 69% 29.88 in 0.8 mi East 12.7 mph 24.2 mph 0.00 in Snow Light Snow
8:40 AM 30.2 °F 19.3 °F 23.0 °F 75% 29.85 in 1.5 mi ENE 15.0 mph 25.3 mph 0.00 in Snow Light Snow
8:53 AM 30.9 °F 20.2 °F 21.9 °F 69% 29.89 in 3.0 mi ENE 15.0 mph 23.0 mph 0.00 in Snow Light Snow
9:06 AM 30.2 °F 19.3 °F 21.2 °F 69% 29.84 in 1.8 mi ENE 15.0 mph 24.2 mph 0.00 in Snow Light Snow
9:10 AM 30.2 °F 19.8 °F 21.2 °F 69% 29.84 in 0.8 mi ENE 13.8 mph 24.2 mph 0.00 in Snow Light Snow
9:19 AM 30.2 °F 19.3 °F 23.0 °F 75% 29.83 in 0.2 mi ENE 15.0 mph 27.6 mph 0.00 in Snow Heavy Snow
9:31 AM 28.4 °F 17.5 °F 24.8 °F 86% 29.84 in 0.2 mi ENE 13.8 mph 33.4 mph 0.00 in Fog , Snow Heavy Snow
9:45 AM 28.4 °F 17.0 °F 24.8 °F 86% 29.83 in 0.2 mi ENE 15.0 mph 21.9 mph 0.01 in Fog , Snow Heavy Snow
9:53 AM 28.9 °F 16.5 °F 25.0 °F 85% 29.88 in 0.2 mi ENE 18.4 mph 29.9 mph 0.03 in Fog , Snow Heavy Snow
10:53 AM 28.9 °F 18.2 °F 25.0 °F 85% 29.87 in 0.2 mi ENE 13.8 mph 23.0 mph 0.04 in Fog , Snow Heavy Snow
11:07 AM 28.4 °F 17.0 °F 24.8 °F 86% 29.83 in 0.2 mi ENE 15.0 mph 23.0 mph 0.00 in Fog , Snow Snow
11:44 AM 30.2 °F 21.3 °F 24.8 °F 80% 29.84 in 0.5 mi ENE 10.4 mph 20.7 mph 0.00 in Snow Snow
12:12 PM 30.2 °F 20.2 °F 24.8 °F 80% 29.84 in 0.8 mi ENE 12.7 mph 24.2 mph 0.01 in Snow Light Snow
12:34 PM 30.2 °F 19.3 °F 24.8 °F 80% 29.84 in 1.0 mi ENE 15.0 mph 23.0 mph 0.01 in Snow Light Snow
12:53 PM 30.9 °F 19.8 °F 24.1 °F 76% 29.88 in 1.5 mi ENE 16.1 mph 24.2 mph 0.01 in Snow Light Snow
1:10 PM 30.2 °F 19.8 °F 24.8 °F 80% 29.83 in 2.0 mi ENE 13.8 mph 24.2 mph 0.00 in Snow Light Snow
1:21 PM 30.2 °F 20.8 °F 24.8 °F 80% 29.82 in 3.0 mi ENE 11.5 mph 23.0 mph 0.00 in Snow Light Snow
1:33 PM 30.2 °F 19.8 °F 24.8 °F 80% 29.82 in 2.5 mi ENE 13.8 mph 21.9 mph 0.00 in Snow Light Snow
1:47 PM 30.2 °F 20.2 °F 24.8 °F 80% 29.82 in 3.0 mi ENE 12.7 mph 20.7 mph 0.00 in Snow Light Snow
1:48 PM 30.9 °F 21.2 °F 25.0 °F 79% 29.86 in 3.0 mi ENE 12.7 mph 20.7 mph 0.00 in Snow Light Snow
2:53 PM 32.0 °F 21.6 °F 24.1 °F 73% 29.83 in 9.0 mi ENE 15.0 mph 28.8 mph 0.00 in   Overcast
3:53 PM 32.0 °F 22.1 °F 23.0 °F 69% 29.83 in 10.0 mi East 13.8 mph 21.9 mph 0.00 in   Overcast
4:53 PM 30.9 °F 20.2 °F 24.1 °F 76% 29.84 in 4.0 mi ENE 15.0 mph 20.7 mph 0.00 in   Haze
5:21 PM 30.2 °F 19.8 °F 24.8 °F 80% 29.79 in 2.0 mi ENE 13.8 mph - 0.00 in Snow Light Snow
5:29 PM 30.2 °F 20.2 °F 24.8 °F 80% 29.79 in 1.5 mi ENE 12.7 mph - 0.00 in Snow Light Snow
5:38 PM 30.2 °F 20.2 °F 24.8 °F 80% 29.79 in 1.5 mi ENE 12.7 mph 20.7 mph 0.00 in Snow Light Snow
5:49 PM 30.2 °F 20.8 °F 24.8 °F 80% 29.80 in 2.0 mi ENE 11.5 mph 23.0 mph 0.00 in Snow Light Snow
5:53 PM 30.9 °F 20.7 °F 25.0 °F 79% 29.85 in 2.0 mi ENE 13.8 mph 20.7 mph 0.00 in Snow Light Snow
6:27 PM 30.2 °F 21.3 °F 24.8 °F 80% 29.81 in 2.0 mi ENE 10.4 mph 23.0 mph 0.00 in Snow Light Snow
6:31 PM 30.2 °F 21.3 °F 24.8 °F 80% 29.81 in 1.5 mi ENE 10.4 mph 18.4 mph 0.00 in Snow Light Snow
6:34 PM 30.2 °F 22.6 °F 24.8 °F 80% 29.81 in 1.2 mi ENE 8.1 mph 18.4 mph 0.00 in Snow Light Snow
6:42 PM 30.2 °F 19.3 °F 24.8 °F 80% 29.81 in 1.5 mi ENE 15.0 mph 21.9 mph 0.00 in Snow Light Snow
6:45 PM 30.2 °F 20.2 °F 23.0 °F 75% 29.81 in 2.0 mi ENE 12.7 mph 21.9 mph 0.00 in Snow Light Snow
6:53 PM 30.0 °F 19.5 °F 23.0 °F 75% 29.86 in 2.5 mi ENE 13.8 mph 20.7 mph 0.00 in Snow Light Snow
7:04 PM 30.2 °F 20.2 °F 24.8 °F 80% 29.80 in 2.5 mi ENE 12.7 mph 21.9 mph 0.00 in Snow Light Snow
7:13 PM 30.2 °F 19.8 °F 24.8 °F 80% 29.81 in 1.2 mi ENE 13.8 mph 20.7 mph 0.00 in Snow Light Snow
7:35 PM 28.4 °F 16.6 °F 23.0 °F 80% 29.80 in 2.5 mi NE 16.1 mph 21.9 mph 0.00 in Snow Light Snow
7:50 PM 28.4 °F 18.5 °F 23.0 °F 80% 29.79 in 5.0 mi NE 11.5 mph 23.0 mph 0.00 in   Haze
7:53 PM 28.9 °F 16.9 °F 23.0 °F 78% 29.84 in 6.0 mi ENE 17.3 mph 23.0 mph 0.00 in   Haze
8:18 PM 28.4 °F 17.0 °F 23.0 °F 80% 29.79 in 10.0 mi ENE 15.0 mph - N/A   Overcast
8:53 PM 28.9 °F 18.6 °F 23.0 °F 78% 29.85 in 5.0 mi ENE 12.7 mph - 0.00 in Snow Light Snow
9:03 PM 28.4 °F 18.0 °F 23.0 °F 80% 29.79 in 2.5 mi ENE 12.7 mph - 0.00 in Snow Light Snow
9:17 PM 28.4 °F 18.0 °F 23.0 °F 80% 29.79 in 1.5 mi NE 12.7 mph 23.0 mph 0.00 in Snow Light Snow
9:24 PM 28.4 °F 18.0 °F 23.0 °F 80% 29.80 in 2.0 mi ENE 12.7 mph - 0.00 in Snow Light Snow
9:34 PM 28.4 °F 19.1 °F 21.2 °F 74% 29.80 in 4.0 mi NE 10.4 mph - 0.00 in Snow Light Snow
9:53 PM 28.0 °F 17.0 °F 21.9 °F 78% 29.86 in 10.0 mi NE 13.8 mph - 0.00 in   Overcast
10:28 PM 28.4 °F 18.0 °F 23.0 °F 80% 29.80 in 4.0 mi NE 12.7 mph - 0.00 in Snow Light Snow
10:53 PM 28.0 °F 17.0 °F 21.9 °F 78% 29.85 in 4.0 mi NE 13.8 mph - 0.00 in Snow Light Snow
11:04 PM 28.4 °F 18.0 °F 21.2 °F 74% 29.80 in 5.0 mi ENE 12.7 mph - 0.00 in Snow Light Snow
11:53 PM 28.9 °F 18.6 °F 21.9 °F 75% 29.84 in 7.0 mi ENE 12.7 mph 20.7 mph 0.00 in   Overcast